[TLELIST] Archives

 

Current TLEs

June 1st 2008 PDT

HST 1 20580U 90037B 08153.17966509 .00000325 00000-0 12247-4 0 1480 2 20580 028.4679 067.6333 0003934 211.8188 148.2162 15.00382650792573 ISS (ZARYA) 1 25544U 98067A 08153.20748251 .00011377 00000-0 73661-4 0 5808 2 25544 051.6367 098.7730 0005447 287.4681 212.5211 15.76610628546001 CXO 1 25867U 99040B 08151.66666667 +.00000540 +00000-0 +10000-3 0 02046 2 25867 063.6891 080.9674 6805844 279.1433 352.7644 00.37809652003566 ____________________________________________________________________ These 2-Line ...Continue Reading

Current TLEs

May 31st 2008 PDT

HST 1 20580U 90037B 08151.91580792 .00000305 00000-0 10725-4 0 1472 2 20580 028.4679 075.8766 0004001 199.8428 160.2003 15.00382089792385 ISS (ZARYA) 1 25544U 98067A 08151.86738640 .00009456 00000-0 62025-4 0 5727 2 25544 051.6375 105.6818 0005301 281.2532 167.5406 15.76571531545790 CXO 1 25867U 99040B 08151.66666667 +.00000540 +00000-0 +10000-3 0 02046 2 25867 063.6891 080.9674 6805844 279.1433 352.7644 00.37809652003566 ____________________________________________________________________ These 2-Line ...Continue Reading

Current TLEs

May 30th 2008 PDT

HST 1 20580U 90037B 08150.25283761 .00000310 00000-0 11086-4 0 1460 2 20580 028.4678 086.7216 0003997 182.8465 177.2102 15.00381619792130 ISS (ZARYA) 1 25544U 98067A 08151.18707176 .00008555 00000-0 56554-4 0 5697 2 25544 051.6368 109.1888 0005356 279.0029 265.9528 15.76553779545684 CXO 1 25867U 99040B 08149.04166667 +.00000557 +00000-0 +10000-3 0 02037 2 25867 063.6724 081.0456 6801232 279.1350 355.4955 00.37807499003557 ____________________________________________________________________ These 2-Line ...Continue Reading

Current TLEs

May 29th 2008 PDT

HST 1 20580U 90037B 08148.92246118 +.00000300 +00000-0 +10355-4 0 01621 2 20580 028.4678 095.4012 0003980 170.8135 189.2526 15.00381154791938 ISS (ZARYA) 1 25544U 98067A 08148.94315948 +.00008789 +00000-0 +58086-4 0 05555 2 25544 051.6374 120.7547 0005399 266.5972 134.3928 15.76514534545338 CXO 1 25867U 99040B 08149.04166667 +.00000557 +00000-0 +10000-3 0 02037 2 25867 063.6724 081.0456 6801232 279.1350 355.4955 00.37807499003557 ____________________________________________________________________ These 2-Line ...Continue Reading

Current TLEs

May 28th 2008 PDT

HST 1 20580U 90037B 08149.18853651 .00000303 00000-0 10604-4 0 1457 2 20580 028.4678 093.6641 0004006 172.8235 187.2418 15.00381261791970 ISS (ZARYA) 1 25544U 98067A 08149.34349925 .00008525 00000-0 56449-4 0 5584 2 25544 051.6367 118.6916 0005339 268.2713 246.3609 15.76520431545391 CXO 1 25867U 99040B 08149.04166667 +.00000557 +00000-0 +10000-3 0 02037 2 25867 063.6724 081.0456 6801232 279.1350 355.4955 00.37807499003557 ____________________________________________________________________ These 2-Line ...Continue Reading

Current TLEs

May 27th 2008 PDT

HST 1 20580U 90037B 08147.32600867 .00000324 00000-0 12247-4 0 1447 2 20580 028.4676 105.8126 0003965 153.6905 206.3886 15.00380836791694 ISS (ZARYA) 1 25544U 98067A 08148.32696205 .00008853 00000-0 58504-4 0 5530 2 25544 051.6374 123.9321 0005440 263.3325 238.1068 15.76503070545237 CXO 1 25867U 99040B 08146.41666667 +.00000490 +00000-0 +10000-3 0 02025 2 25867 063.6596 081.1016 6796408 279.1458 358.1803 00.37806132003548 ____________________________________________________________________ These 2-Line ...Continue Reading

Current TLEs

May 26th 2008 PDT

HST 1 20580U 90037B 08145.33044215 +.00000343 +00000-0 +13681-4 0 01562 2 20580 028.4675 118.8287 0003916 132.8916 227.2002 15.00380236791395 ISS (ZARYA) 1 25544U 98067A 08147.11399198 .00009347 00000-0 61599-4 0 5466 2 25544 051.6372 130.1823 0005326 257.3809 195.3561 15.76481742545047 CXO 1 25867U 99040B 08146.41666667 +.00000490 +00000-0 +10000-3 0 02025 2 25867 063.6596 081.1016 6796408 279.1458 358.1803 00.37806132003548 ____________________________________________________________________ These 2-Line ...Continue Reading

Current TLEs

May 25th 2008 PDT

HST 1 20580U 90037B 08146.19518768 .00000338 00000-0 13270-4 0 1430 2 20580 028.4675 113.1886 0003930 142.4977 217.5886 15.00380514791524 ISS (ZARYA) 1 25544U 98067A 08146.09834571 .00009639 00000-0 63442-4 0 5396 2 25544 051.6369 135.4160 0005355 253.0352 191.7134 15.76462468544884 CXO 1 25867U 99040B 08143.79166667 .00000418 00000-0 10000-3 0 2017 2 25867 063.6496 081.1632 6791387 279.1645 000.8306 00.37805493 3537 ____________________________________________________________________ These 2-Line ...Continue Reading

Current TLEs

May 24th 2008 PDT

HST 1 20580U 90037B 08144.33265828 .00000322 00000-0 12038-4 0 1423 2 20580 028.4675 125.3358 0003886 122.7895 237.3070 15.00379755791242 ISS (ZARYA) 1 25544U 98067A 08145.47432440 .00009883 00000-0 64978-4 0 5381 2 25544 051.6370 138.6327 0005388 249.9232 250.9626 15.76450707544789 CXO 1 25867U 99040B 08143.79166667 .00000418 00000-0 10000-3 0 2017 2 25867 063.6496 081.1632 6791387 279.1645 000.8306 00.37805493 3537 ____________________________________________________________________ These 2-Line ...Continue Reading

Current TLEs

May 23rd 2008 PDT

HST 1 20580U 90037B 08142.40360793 +.00000305 +00000-0 +10770-4 0 01518 2 20580 028.4678 137.9172 0003815 102.3188 257.7828 15.00379091790956 ISS (ZARYA) 1 25544U 98067A 08143.32928241 .00008455 00000-0 56307-4 0 5260 2 25544 051.6376 149.6881 0005602 240.3546 318.8778 15.76401038544442 CXO 1 25867U 99040B 08143.79166667 .00000418 00000-0 10000-3 0 2017 2 25867 063.6496 081.1632 6791387 279.1645 000.8306 00.37805493 3537 ____________________________________________________________________ These 2-Line ...Continue Reading
  • This mailing list is a public mailing list - anyone may join or leave, at any time.
  • This mailing list is announce-only.

International Space Station (ISS) / Hubble Space Telescope (HST) / Chandra X-Ray Observatory Orbital Data via EMAIL

Privacy Policy:

Private list